Year,Month,Day,Hour,Minute,Value (Times are PST for temperature in C)
2013,09,26,00,00,8.20
2013,09,26,00,01,8.20
2013,09,26,00,02,8.10
2013,09,26,00,03,8.10
2013,09,26,00,04,8.10
2013,09,26,00,05,8.10
2013,09,26,00,06,8.00
2013,09,26,00,07,8.00
2013,09,26,00,08,8.00
2013,09,26,00,09,7.90
2013,09,26,00,10,7.90
2013,09,26,00,11,7.90
2013,09,26,00,12,7.90
2013,09,26,00,13,7.80
2013,09,26,00,14,7.80
2013,09,26,00,15,7.80
2013,09,26,00,16,7.80
2013,09,26,00,17,7.80
2013,09,26,00,18,7.70
2013,09,26,00,19,7.70
2013,09,26,00,20,7.70
2013,09,26,00,21,7.70
2013,09,26,00,22,7.70
2013,09,26,00,23,7.70
2013,09,26,00,24,7.60
2013,09,26,00,25,7.60
2013,09,26,00,26,7.60
2013,09,26,00,27,7.60
2013,09,26,00,28,7.60
2013,09,26,00,29,7.60
2013,09,26,00,30,7.60
2013,09,26,00,31,7.60
2013,09,26,00,32,7.60
2013,09,26,00,33,7.60
2013,09,26,00,34,7.60
2013,09,26,00,35,7.60
2013,09,26,00,36,7.60
2013,09,26,00,37,7.60
2013,09,26,00,38,7.50
2013,09,26,00,39,7.50
2013,09,26,00,40,7.50
2013,09,26,00,41,7.40
2013,09,26,00,42,7.40
2013,09,26,00,43,7.40
2013,09,26,00,44,7.40
2013,09,26,00,45,7.40
2013,09,26,00,46,7.40
2013,09,26,00,47,7.40
2013,09,26,00,48,7.40
2013,09,26,00,49,7.30
2013,09,26,00,50,7.30
2013,09,26,00,51,7.30
2013,09,26,00,52,7.30
2013,09,26,00,53,7.30
2013,09,26,00,54,7.30
2013,09,26,00,55,7.30
2013,09,26,00,56,7.20
2013,09,26,00,57,7.20
2013,09,26,00,58,7.20
2013,09,26,00,59,7.20
2013,09,26,01,00,7.20
2013,09,26,01,01,7.20
2013,09,26,01,02,7.20
2013,09,26,01,03,7.20
2013,09,26,01,04,7.20
2013,09,26,01,05,7.30
2013,09,26,01,06,7.30
2013,09,26,01,07,7.30
2013,09,26,01,08,7.30
2013,09,26,01,09,7.30
2013,09,26,01,10,7.30
2013,09,26,01,11,7.30
2013,09,26,01,12,7.30
2013,09,26,01,13,7.20
2013,09,26,01,14,7.20
2013,09,26,01,15,7.20
2013,09,26,01,16,7.20
2013,09,26,01,17,7.20
2013,09,26,01,18,7.20
2013,09,26,01,19,7.20
2013,09,26,01,20,7.20
2013,09,26,01,21,7.20
2013,09,26,01,22,7.20
2013,09,26,01,23,7.10
2013,09,26,01,24,7.10
2013,09,26,01,25,7.10
2013,09,26,01,26,7.00
2013,09,26,01,27,7.00
2013,09,26,01,28,7.00
2013,09,26,01,29,7.00
2013,09,26,01,30,6.90
2013,09,26,01,31,6.90
2013,09,26,01,32,6.90
2013,09,26,01,33,6.90
2013,09,26,01,34,6.80
2013,09,26,01,35,6.80
2013,09,26,01,36,6.80
2013,09,26,01,37,6.80
2013,09,26,01,38,6.70
2013,09,26,01,39,6.70
2013,09,26,01,40,6.70
2013,09,26,01,41,6.70
2013,09,26,01,42,6.70
2013,09,26,01,43,6.70
2013,09,26,01,44,6.70
2013,09,26,01,45,6.60
2013,09,26,01,46,6.60
2013,09,26,01,47,6.60
2013,09,26,01,48,6.60
2013,09,26,01,49,6.70
2013,09,26,01,50,6.70
2013,09,26,01,51,6.70
2013,09,26,01,52,6.70
2013,09,26,01,53,6.70
2013,09,26,01,54,6.70
2013,09,26,01,55,6.70
2013,09,26,01,56,6.70
2013,09,26,01,57,6.70
2013,09,26,01,58,6.70
2013,09,26,01,59,6.60
2013,09,26,02,00,6.60
2013,09,26,02,01,6.70
2013,09,26,02,02,6.60
2013,09,26,02,03,6.70
2013,09,26,02,04,6.60
2013,09,26,02,05,6.60
2013,09,26,02,06,6.60
2013,09,26,02,07,6.60
2013,09,26,02,08,6.50
2013,09,26,02,09,6.50
2013,09,26,02,10,6.50
2013,09,26,02,11,6.40
2013,09,26,02,12,6.40
2013,09,26,02,13,6.40
2013,09,26,02,14,6.40
2013,09,26,02,15,6.30
2013,09,26,02,16,6.30
2013,09,26,02,17,6.30
2013,09,26,02,18,6.30
2013,09,26,02,19,6.30
2013,09,26,02,20,6.30
2013,09,26,02,21,6.30
2013,09,26,02,22,6.40
2013,09,26,02,23,6.30
2013,09,26,02,24,6.30
2013,09,26,02,25,6.30
2013,09,26,02,26,6.30
2013,09,26,02,27,6.30
2013,09,26,02,28,6.30
2013,09,26,02,29,6.30
2013,09,26,02,30,6.30
2013,09,26,02,31,6.30
2013,09,26,02,32,6.30
2013,09,26,02,33,6.30
2013,09,26,02,34,6.20
2013,09,26,02,35,6.20
2013,09,26,02,36,6.20
2013,09,26,02,37,6.20
2013,09,26,02,38,6.20
2013,09,26,02,39,6.20
2013,09,26,02,40,6.20
2013,09,26,02,41,6.20
2013,09,26,02,42,6.20
2013,09,26,02,43,6.20
2013,09,26,02,44,6.30
2013,09,26,02,45,6.30
2013,09,26,02,46,6.30
2013,09,26,02,47,6.30
2013,09,26,02,48,6.30
2013,09,26,02,49,6.20
2013,09,26,02,50,6.20
2013,09,26,02,51,6.20
2013,09,26,02,52,6.20
2013,09,26,02,53,6.20
2013,09,26,02,54,6.20
2013,09,26,02,55,6.20
2013,09,26,02,56,6.20
2013,09,26,02,57,6.20
2013,09,26,02,58,6.20
2013,09,26,02,59,6.20
2013,09,26,03,00,6.20
2013,09,26,03,01,6.10
2013,09,26,03,02,6.10
2013,09,26,03,03,6.10
2013,09,26,03,04,6.10
2013,09,26,03,05,6.10
2013,09,26,03,06,6.20
2013,09,26,03,07,6.20
2013,09,26,03,08,6.20
2013,09,26,03,09,6.20
2013,09,26,03,10,6.20
2013,09,26,03,11,6.20
2013,09,26,03,12,6.20
2013,09,26,03,13,6.20
2013,09,26,03,14,6.20
2013,09,26,03,15,6.20
2013,09,26,03,16,6.20
2013,09,26,03,17,6.20
2013,09,26,03,18,6.20
2013,09,26,03,19,6.20
2013,09,26,03,20,6.20
2013,09,26,03,21,6.20
2013,09,26,03,22,6.20
2013,09,26,03,23,6.20
2013,09,26,03,24,6.20
2013,09,26,03,25,6.20
2013,09,26,03,26,6.20
2013,09,26,03,27,6.20
2013,09,26,03,28,6.10
2013,09,26,03,29,6.10
2013,09,26,03,30,6.10
2013,09,26,03,31,6.10
2013,09,26,03,32,6.00
2013,09,26,03,33,6.00
2013,09,26,03,34,6.00
2013,09,26,03,35,5.90
2013,09,26,03,36,5.90
2013,09,26,03,37,5.90
2013,09,26,03,38,5.90
2013,09,26,03,39,5.90
2013,09,26,03,40,5.80
2013,09,26,03,41,5.80
2013,09,26,03,42,5.80
2013,09,26,03,43,5.70
2013,09,26,03,44,5.70
2013,09,26,03,45,5.70
2013,09,26,03,46,5.70
2013,09,26,03,47,5.70
2013,09,26,03,48,5.70
2013,09,26,03,49,5.70
2013,09,26,03,50,5.70
2013,09,26,03,51,5.70
2013,09,26,03,52,5.70
2013,09,26,03,53,5.70
2013,09,26,03,54,5.60
2013,09,26,03,55,5.60
2013,09,26,03,56,5.60
2013,09,26,03,57,5.60
2013,09,26,03,58,5.60
2013,09,26,03,59,5.60
2013,09,26,04,00,5.60
2013,09,26,04,01,5.60
2013,09,26,04,02,5.60
2013,09,26,04,03,5.60
2013,09,26,04,04,5.60
2013,09,26,04,05,5.60
2013,09,26,04,06,5.60
2013,09,26,04,07,5.60
2013,09,26,04,08,5.60
2013,09,26,04,09,5.60
2013,09,26,04,10,5.50
2013,09,26,04,11,5.50
2013,09,26,04,12,5.50
2013,09,26,04,13,5.40
2013,09,26,04,14,5.40
2013,09,26,04,15,5.40
2013,09,26,04,16,5.40
2013,09,26,04,17,5.40
2013,09,26,04,18,5.40
2013,09,26,04,19,5.40
2013,09,26,04,20,5.40
2013,09,26,04,21,5.30
2013,09,26,04,22,5.30
2013,09,26,04,23,5.30
2013,09,26,04,24,5.30
2013,09,26,04,25,5.30
2013,09,26,04,26,5.30
2013,09,26,04,27,5.30
2013,09,26,04,28,5.30
2013,09,26,04,29,5.30
2013,09,26,04,30,5.20
2013,09,26,04,31,5.20
2013,09,26,04,32,5.20
2013,09,26,04,33,5.20
2013,09,26,04,34,5.20
2013,09,26,04,35,5.20
2013,09,26,04,36,5.20
2013,09,26,04,37,5.20
2013,09,26,04,38,5.20
2013,09,26,04,39,5.20
2013,09,26,04,40,5.20
2013,09,26,04,41,5.20
2013,09,26,04,42,5.20
2013,09,26,04,43,5.20
2013,09,26,04,44,5.20
2013,09,26,04,45,5.20
2013,09,26,04,46,5.20
2013,09,26,04,47,5.10
2013,09,26,04,48,5.10
2013,09,26,04,49,5.10
2013,09,26,04,50,5.10
2013,09,26,04,51,5.10
2013,09,26,04,52,5.10
2013,09,26,04,53,5.10
2013,09,26,04,54,5.10
2013,09,26,04,55,5.10
2013,09,26,04,56,5.10
2013,09,26,04,57,5.10
2013,09,26,04,58,5.10
2013,09,26,04,59,5.10
2013,09,26,05,00,5.10
2013,09,26,05,01,5.10
2013,09,26,05,02,5.10
2013,09,26,05,03,5.00
2013,09,26,05,04,5.00
2013,09,26,05,05,5.00
2013,09,26,05,06,4.90
2013,09,26,05,07,4.90
2013,09,26,05,08,4.90
2013,09,26,05,09,4.90
2013,09,26,05,10,4.90
2013,09,26,05,11,4.90
2013,09,26,05,12,4.80
2013,09,26,05,13,4.80
2013,09,26,05,14,4.80
2013,09,26,05,15,4.80
2013,09,26,05,16,4.80
2013,09,26,05,17,4.80
2013,09,26,05,18,4.90
2013,09,26,05,19,4.90
2013,09,26,05,20,5.00
2013,09,26,05,21,5.10
2013,09,26,05,22,5.10
2013,09,26,05,23,5.10
2013,09,26,05,24,5.10
2013,09,26,05,25,5.00
2013,09,26,05,26,5.00
2013,09,26,05,27,5.00
2013,09,26,05,28,5.00
2013,09,26,05,29,4.90
2013,09,26,05,30,4.90
2013,09,26,05,31,4.90
2013,09,26,05,32,4.90
2013,09,26,05,33,4.90
2013,09,26,05,34,4.90
2013,09,26,05,35,4.90
2013,09,26,05,36,4.90
2013,09,26,05,37,4.80
2013,09,26,05,38,4.80
2013,09,26,05,39,4.80
2013,09,26,05,40,4.80
2013,09,26,05,41,4.90
2013,09,26,05,42,4.90
2013,09,26,05,43,4.90
2013,09,26,05,44,5.00
2013,09,26,05,45,5.00
2013,09,26,05,46,5.00
2013,09,26,05,47,5.00
2013,09,26,05,48,5.00
2013,09,26,05,49,5.00
2013,09,26,05,50,5.00
2013,09,26,05,51,5.00
2013,09,26,05,52,4.90
2013,09,26,05,53,4.90
2013,09,26,05,54,4.90
2013,09,26,05,55,4.90
2013,09,26,05,56,4.90
2013,09,26,05,57,4.90
2013,09,26,05,58,4.90
2013,09,26,05,59,4.80
2013,09,26,06,00,4.80
2013,09,26,06,01,4.80
2013,09,26,06,02,4.70
2013,09,26,06,03,4.70
2013,09,26,06,04,4.70
2013,09,26,06,05,4.70
2013,09,26,06,06,4.70
2013,09,26,06,07,4.70
2013,09,26,06,08,4.70
2013,09,26,06,09,4.70
2013,09,26,06,10,4.70
2013,09,26,06,11,4.70
2013,09,26,06,12,4.70
2013,09,26,06,13,4.70
2013,09,26,06,14,4.70
2013,09,26,06,15,4.70
2013,09,26,06,16,4.70
2013,09,26,06,17,4.70
2013,09,26,06,18,4.70
2013,09,26,06,19,4.70
2013,09,26,06,20,4.70
2013,09,26,06,21,4.60
2013,09,26,06,22,4.60
2013,09,26,06,23,4.60
2013,09,26,06,24,4.60
2013,09,26,06,25,4.60
2013,09,26,06,26,4.50
2013,09,26,06,27,4.50
2013,09,26,06,28,4.50
2013,09,26,06,29,4.50
2013,09,26,06,30,4.50
2013,09,26,06,31,4.50
2013,09,26,06,32,4.50
2013,09,26,06,33,4.50
2013,09,26,06,34,4.50
2013,09,26,06,35,4.50
2013,09,26,06,36,4.50
2013,09,26,06,37,4.50
2013,09,26,06,38,4.50
2013,09,26,06,39,4.50
2013,09,26,06,40,4.40
2013,09,26,06,41,4.40
2013,09,26,06,42,4.40
2013,09,26,06,43,4.40
2013,09,26,06,44,4.40
2013,09,26,06,45,4.50
2013,09,26,06,46,4.50
2013,09,26,06,47,4.60
2013,09,26,06,48,4.60
2013,09,26,06,49,4.60
2013,09,26,06,50,4.60
2013,09,26,06,51,4.50
2013,09,26,06,52,4.50
2013,09,26,06,53,4.50
2013,09,26,06,54,4.50
2013,09,26,06,55,4.50
2013,09,26,06,56,4.50
2013,09,26,06,57,4.50
2013,09,26,06,58,4.50
2013,09,26,06,59,4.50
2013,09,26,07,00,4.50
2013,09,26,07,01,4.50
2013,09,26,07,02,4.50
2013,09,26,07,03,4.50
2013,09,26,07,04,4.50
2013,09,26,07,05,4.60
2013,09,26,07,06,4.50
2013,09,26,07,07,4.60
2013,09,26,07,08,4.60
2013,09,26,07,09,4.60
2013,09,26,07,10,4.60
2013,09,26,07,11,4.60
2013,09,26,07,12,4.60
2013,09,26,07,13,4.60
2013,09,26,07,14,4.60
2013,09,26,07,15,4.60
2013,09,26,07,16,4.70
2013,09,26,07,17,4.60
2013,09,26,07,18,4.60
2013,09,26,07,19,4.60
2013,09,26,07,20,4.60
2013,09,26,07,21,4.60
2013,09,26,07,22,4.60
2013,09,26,07,23,4.70
2013,09,26,07,24,4.70
2013,09,26,07,25,4.70
2013,09,26,07,26,4.70
2013,09,26,07,27,4.70
2013,09,26,07,28,4.70
2013,09,26,07,29,4.70
2013,09,26,07,30,4.70
2013,09,26,07,31,4.70
2013,09,26,07,32,4.70
2013,09,26,07,33,4.70
2013,09,26,07,34,4.70
2013,09,26,07,35,4.70
2013,09,26,07,36,4.70
2013,09,26,07,37,4.70
2013,09,26,07,38,4.70
2013,09,26,07,39,4.70
2013,09,26,07,40,4.70
2013,09,26,07,41,4.70
2013,09,26,07,42,4.70
2013,09,26,07,43,4.70
2013,09,26,07,44,4.70
2013,09,26,07,45,4.60
2013,09,26,07,46,4.60
2013,09,26,07,47,4.60
2013,09,26,07,48,4.60
2013,09,26,07,49,4.60
2013,09,26,07,50,4.60
2013,09,26,07,51,4.60
2013,09,26,07,52,4.60
2013,09,26,07,53,4.60
2013,09,26,07,54,4.60
2013,09,26,07,55,4.60
2013,09,26,07,56,4.60
2013,09,26,07,57,4.60
2013,09,26,07,58,4.70
2013,09,26,07,59,4.70
2013,09,26,08,00,4.70
2013,09,26,08,01,4.70
2013,09,26,08,02,4.70
2013,09,26,08,03,4.80
2013,09,26,08,04,4.80
2013,09,26,08,05,4.80
2013,09,26,08,06,4.80
2013,09,26,08,07,4.90
2013,09,26,08,08,4.90
2013,09,26,08,09,4.90
2013,09,26,08,10,5.00
2013,09,26,08,11,5.00
2013,09,26,08,12,5.10
2013,09,26,08,13,5.10
2013,09,26,08,14,5.10
2013,09,26,08,15,5.10
2013,09,26,08,16,5.20
2013,09,26,08,17,5.20
2013,09,26,08,18,5.20
2013,09,26,08,19,5.30
2013,09,26,08,20,5.30
2013,09,26,08,21,5.30
2013,09,26,08,22,5.40
2013,09,26,08,23,5.40
2013,09,26,08,24,5.40
2013,09,26,08,25,5.50
2013,09,26,08,26,5.50
2013,09,26,08,27,5.50
2013,09,26,08,28,5.50
2013,09,26,08,29,5.60
2013,09,26,08,30,5.60
2013,09,26,08,31,5.60
2013,09,26,08,32,5.60
2013,09,26,08,33,5.60
2013,09,26,08,34,5.70
2013,09,26,08,35,5.70
2013,09,26,08,36,5.80
2013,09,26,08,37,5.80
2013,09,26,08,38,5.90
2013,09,26,08,39,6.00
2013,09,26,08,40,6.00
2013,09,26,08,41,6.10
2013,09,26,08,42,6.20
2013,09,26,08,43,6.20
2013,09,26,08,44,6.30
2013,09,26,08,45,6.40
2013,09,26,08,46,6.50
2013,09,26,08,47,6.50
2013,09,26,08,48,6.60
2013,09,26,08,49,6.70
2013,09,26,08,50,6.80
2013,09,26,08,51,6.90
2013,09,26,08,52,7.00
2013,09,26,08,53,7.10
2013,09,26,08,54,7.10
2013,09,26,08,55,7.20
2013,09,26,08,56,7.30
2013,09,26,08,57,7.40
2013,09,26,08,58,7.50
2013,09,26,08,59,7.60
2013,09,26,09,00,7.70
2013,09,26,09,01,7.80
2013,09,26,09,02,8.00
2013,09,26,09,03,8.10
2013,09,26,09,04,8.20
2013,09,26,09,05,8.30
2013,09,26,09,06,8.30
2013,09,26,09,07,8.40
2013,09,26,09,08,8.40
2013,09,26,09,09,8.50
2013,09,26,09,10,8.50
2013,09,26,09,11,8.60
2013,09,26,09,12,8.60
2013,09,26,09,13,8.70
2013,09,26,09,14,8.80
2013,09,26,09,15,8.90
2013,09,26,09,16,9.00
2013,09,26,09,17,9.10
2013,09,26,09,18,9.20
2013,09,26,09,19,9.30
2013,09,26,09,20,9.30
2013,09,26,09,21,9.40
2013,09,26,09,22,9.50
2013,09,26,09,23,9.50
2013,09,26,09,24,9.60
2013,09,26,09,25,9.70
2013,09,26,09,26,9.80
2013,09,26,09,27,9.80
2013,09,26,09,28,10.00
2013,09,26,09,29,10.10
2013,09,26,09,30,10.20
2013,09,26,09,31,10.30
2013,09,26,09,32,10.40
2013,09,26,09,33,10.40
2013,09,26,09,34,10.50
2013,09,26,09,35,10.60
2013,09,26,09,36,10.70
2013,09,26,09,37,10.80
2013,09,26,09,38,10.90
2013,09,26,09,39,11.00
2013,09,26,09,40,11.00
2013,09,26,09,41,11.10
2013,09,26,09,42,11.20
2013,09,26,09,43,11.20
2013,09,26,09,44,11.30
2013,09,26,09,45,11.30
2013,09,26,09,46,11.40
2013,09,26,09,47,11.40
2013,09,26,09,48,11.50
2013,09,26,09,49,11.50
2013,09,26,09,50,11.60
2013,09,26,09,51,11.60
2013,09,26,09,52,11.60
2013,09,26,09,53,11.70
2013,09,26,09,54,11.70
2013,09,26,09,55,11.80
2013,09,26,09,56,11.80
2013,09,26,09,57,11.80
2013,09,26,09,58,11.80
2013,09,26,09,59,11.90
2013,09,26,10,00,11.90
2013,09,26,10,01,11.90
2013,09,26,10,02,12.00
2013,09,26,10,03,12.00
2013,09,26,10,04,12.10
2013,09,26,10,05,12.10
2013,09,26,10,06,12.20
2013,09,26,10,07,12.20
2013,09,26,10,08,12.30
2013,09,26,10,09,12.40
2013,09,26,10,10,12.40
2013,09,26,10,11,12.40
2013,09,26,10,12,12.50
2013,09,26,10,13,12.50
2013,09,26,10,14,12.60
2013,09,26,10,15,12.60
2013,09,26,10,16,12.70
2013,09,26,10,17,12.70
2013,09,26,10,18,12.70
2013,09,26,10,19,12.70
2013,09,26,10,20,12.70
2013,09,26,10,21,12.70
2013,09,26,10,22,12.80
2013,09,26,10,23,12.80
2013,09,26,10,24,12.80
2013,09,26,10,25,12.80
2013,09,26,10,26,12.90
2013,09,26,10,27,12.80
2013,09,26,10,28,12.80
2013,09,26,10,29,12.80
2013,09,26,10,30,12.80
2013,09,26,10,31,12.90
2013,09,26,10,32,12.90
2013,09,26,10,33,12.90
2013,09,26,10,34,12.90
2013,09,26,10,35,12.90
2013,09,26,10,36,12.90
2013,09,26,10,37,13.00
2013,09,26,10,38,13.00
2013,09,26,10,39,13.10
2013,09,26,10,40,13.10
2013,09,26,10,41,13.10
2013,09,26,10,42,13.20
2013,09,26,10,43,13.20
2013,09,26,10,44,13.20
2013,09,26,10,45,13.20
2013,09,26,10,46,13.20
2013,09,26,10,47,13.20
2013,09,26,10,48,13.20
2013,09,26,10,49,13.20
2013,09,26,10,50,13.10
2013,09,26,10,51,13.10
2013,09,26,10,52,13.10
2013,09,26,10,53,13.00
2013,09,26,10,54,13.00
2013,09,26,10,55,12.90
2013,09,26,10,56,12.90
2013,09,26,10,57,12.90
2013,09,26,10,58,12.90
2013,09,26,10,59,12.90
2013,09,26,11,00,12.90
2013,09,26,11,01,12.90
2013,09,26,11,02,13.00
2013,09,26,11,03,13.00
2013,09,26,11,04,13.00
2013,09,26,11,05,13.10
2013,09,26,11,06,13.10
2013,09,26,11,07,13.10
2013,09,26,11,08,13.20
2013,09,26,11,09,13.20
2013,09,26,11,10,13.20
2013,09,26,11,11,13.30
2013,09,26,11,12,13.30
2013,09,26,11,13,13.40
2013,09,26,11,14,13.40
2013,09,26,11,15,13.40
2013,09,26,11,16,13.40
2013,09,26,11,17,13.40
2013,09,26,11,18,13.40
2013,09,26,11,19,13.40
2013,09,26,11,20,13.40
2013,09,26,11,21,13.40
2013,09,26,11,22,13.40
2013,09,26,11,23,13.40
2013,09,26,11,24,13.50
2013,09,26,11,25,13.50
2013,09,26,11,26,13.50
2013,09,26,11,27,13.50
2013,09,26,11,28,13.40
2013,09,26,11,29,13.40
2013,09,26,11,30,13.40
2013,09,26,11,31,13.40
2013,09,26,11,32,13.40
2013,09,26,11,33,13.40
2013,09,26,11,34,13.40
2013,09,26,11,35,13.40
2013,09,26,11,36,13.40
2013,09,26,11,37,13.30
2013,09,26,11,38,13.40
2013,09,26,11,39,13.40
2013,09,26,11,40,13.40
2013,09,26,11,41,13.50
2013,09,26,11,42,13.50
2013,09,26,11,43,13.60
2013,09,26,11,44,13.70
2013,09,26,11,45,13.70
2013,09,26,11,46,13.80
2013,09,26,11,47,13.80
2013,09,26,11,48,13.80
2013,09,26,11,49,13.80
2013,09,26,11,50,13.80
2013,09,26,11,51,13.80
2013,09,26,11,52,13.80
2013,09,26,11,53,13.70
2013,09,26,11,54,13.70
2013,09,26,11,55,13.70
2013,09,26,11,56,13.70
2013,09,26,11,57,13.60
2013,09,26,11,58,13.60
2013,09,26,11,59,13.60
2013,09,26,12,00,13.60
2013,09,26,12,01,13.60
2013,09,26,12,02,13.50
2013,09,26,12,03,13.50
2013,09,26,12,04,13.50
2013,09,26,12,05,13.50
2013,09,26,12,06,13.50
2013,09,26,12,07,13.50
2013,09,26,12,08,13.60
2013,09,26,12,09,13.60
2013,09,26,12,10,13.60
2013,09,26,12,11,13.60
2013,09,26,12,12,13.70
2013,09,26,12,13,13.70
2013,09,26,12,14,13.70
2013,09,26,12,15,13.70
2013,09,26,12,16,13.70
2013,09,26,12,17,13.70
2013,09,26,12,18,13.70
2013,09,26,12,19,13.60
2013,09,26,12,20,13.60
2013,09,26,12,21,13.60
2013,09,26,12,22,13.60
2013,09,26,12,23,13.70
2013,09,26,12,24,13.70
2013,09,26,12,25,13.80
2013,09,26,12,26,13.80
2013,09,26,12,27,13.80
2013,09,26,12,28,13.80
2013,09,26,12,29,13.70
2013,09,26,12,30,13.70
2013,09,26,12,31,13.60
2013,09,26,12,32,13.60
2013,09,26,12,33,13.50
2013,09,26,12,34,13.50
2013,09,26,12,35,13.50
2013,09,26,12,36,13.50
2013,09,26,12,37,13.50
2013,09,26,12,38,13.50
2013,09,26,12,39,13.50
2013,09,26,12,40,13.50
2013,09,26,12,41,13.60
2013,09,26,12,42,13.60
2013,09,26,12,43,13.60
2013,09,26,12,44,13.60
2013,09,26,12,45,13.70
2013,09,26,12,46,13.70
2013,09,26,12,47,13.80
2013,09,26,12,48,13.80
2013,09,26,12,49,13.80
2013,09,26,12,50,13.70
2013,09,26,12,51,13.60
2013,09,26,12,52,13.50
2013,09,26,12,53,13.50
2013,09,26,12,54,13.40
2013,09,26,12,55,13.40
2013,09,26,12,56,13.40
2013,09,26,12,57,13.40
2013,09,26,12,58,13.40
2013,09,26,12,59,13.40
2013,09,26,13,00,13.40
2013,09,26,13,01,13.40
2013,09,26,13,02,13.40
2013,09,26,13,03,13.30
2013,09,26,13,04,13.30
2013,09,26,13,05,13.30
2013,09,26,13,06,13.30
2013,09,26,13,07,13.30
2013,09,26,13,08,13.30
2013,09,26,13,09,13.40
2013,09,26,13,10,13.40
2013,09,26,13,11,13.30
2013,09,26,13,12,13.30
2013,09,26,13,13,13.40
2013,09,26,13,14,13.40
2013,09,26,13,15,13.40
2013,09,26,13,16,13.50
2013,09,26,13,17,13.50
2013,09,26,13,18,13.70
2013,09,26,13,19,13.70
2013,09,26,13,20,13.80
2013,09,26,13,21,13.80
2013,09,26,13,22,13.80
2013,09,26,13,23,13.80
2013,09,26,13,24,13.70
2013,09,26,13,25,13.70
2013,09,26,13,26,13.70
2013,09,26,13,27,13.70
2013,09,26,13,28,13.80
2013,09,26,13,29,13.90
2013,09,26,13,30,13.90
2013,09,26,13,31,14.00
2013,09,26,13,32,14.10
2013,09,26,13,33,14.10
2013,09,26,13,34,14.10
2013,09,26,13,35,14.10
2013,09,26,13,36,14.00
2013,09,26,13,37,14.00
2013,09,26,13,38,13.90
2013,09,26,13,39,13.90
2013,09,26,13,40,13.80
2013,09,26,13,41,13.80
2013,09,26,13,42,13.80
2013,09,26,13,43,13.90
2013,09,26,13,44,13.90
2013,09,26,13,45,14.00
2013,09,26,13,46,14.10
2013,09,26,13,47,14.10
2013,09,26,13,48,14.10
2013,09,26,13,49,14.10
2013,09,26,13,50,14.20
2013,09,26,13,51,14.20
2013,09,26,13,52,14.20
2013,09,26,13,53,14.20
2013,09,26,13,54,14.20
2013,09,26,13,55,14.20
2013,09,26,13,56,14.20
2013,09,26,13,57,14.30
2013,09,26,13,58,14.30
2013,09,26,13,59,14.30
2013,09,26,14,00,14.30
2013,09,26,14,01,14.30
2013,09,26,14,02,14.30
2013,09,26,14,03,14.30
2013,09,26,14,04,14.30
2013,09,26,14,05,14.30
2013,09,26,14,06,14.30
2013,09,26,14,07,14.30
2013,09,26,14,08,14.30
2013,09,26,14,09,14.30
2013,09,26,14,10,14.30
2013,09,26,14,11,14.30
2013,09,26,14,12,14.30
2013,09,26,14,13,14.40
2013,09,26,14,14,14.40
2013,09,26,14,15,14.50
2013,09,26,14,16,14.50
2013,09,26,14,17,14.60
2013,09,26,14,18,14.60
2013,09,26,14,19,14.70
2013,09,26,14,20,14.70
2013,09,26,14,21,14.70
2013,09,26,14,22,14.70
2013,09,26,14,23,14.70
2013,09,26,14,24,14.70
2013,09,26,14,25,14.60
2013,09,26,14,26,14.70
2013,09,26,14,27,14.70
2013,09,26,14,28,14.70
2013,09,26,14,29,14.60
2013,09,26,14,30,14.60
2013,09,26,14,31,14.60
2013,09,26,14,32,14.60
2013,09,26,14,33,14.60
2013,09,26,14,34,14.60
2013,09,26,14,35,14.60
2013,09,26,14,36,14.70
2013,09,26,14,37,14.70
2013,09,26,14,38,14.70
2013,09,26,14,39,14.70
2013,09,26,14,40,14.70
2013,09,26,14,41,14.60
2013,09,26,14,42,14.50
2013,09,26,14,43,14.40
2013,09,26,14,44,14.30
2013,09,26,14,45,14.10
2013,09,26,14,46,14.00
2013,09,26,14,47,13.90
2013,09,26,14,48,13.80
2013,09,26,14,49,13.80
2013,09,26,14,50,13.80
2013,09,26,14,51,13.80
2013,09,26,14,52,13.80
2013,09,26,14,53,13.80
2013,09,26,14,54,13.80
2013,09,26,14,55,13.80
2013,09,26,14,56,13.80
2013,09,26,14,57,13.90
2013,09,26,14,58,13.90
2013,09,26,14,59,13.90
2013,09,26,15,00,14.00
2013,09,26,15,01,14.00
2013,09,26,15,02,14.00
2013,09,26,15,03,13.90
2013,09,26,15,04,13.90
2013,09,26,15,05,14.00
2013,09,26,15,06,14.00
2013,09,26,15,07,14.10
2013,09,26,15,08,14.10
2013,09,26,15,09,14.20
2013,09,26,15,10,14.20
2013,09,26,15,11,14.30
2013,09,26,15,12,14.30
2013,09,26,15,13,14.40
2013,09,26,15,14,14.40
2013,09,26,15,15,14.50
2013,09,26,15,16,14.60
2013,09,26,15,17,14.70
2013,09,26,15,18,14.70
2013,09,26,15,19,14.80
2013,09,26,15,20,14.90
2013,09,26,15,21,15.00
2013,09,26,15,22,15.10
2013,09,26,15,23,15.10
2013,09,26,15,24,15.10
2013,09,26,15,25,15.20
2013,09,26,15,26,15.20
2013,09,26,15,27,15.20
2013,09,26,15,28,15.20
2013,09,26,15,29,15.20
2013,09,26,15,30,15.20
2013,09,26,15,31,15.20
2013,09,26,15,32,15.20
2013,09,26,15,33,15.30
2013,09,26,15,34,15.30
2013,09,26,15,35,15.30
2013,09,26,15,36,15.30
2013,09,26,15,37,15.30
2013,09,26,15,38,15.30
2013,09,26,15,39,15.30
2013,09,26,15,40,15.40
2013,09,26,15,41,15.40
2013,09,26,15,42,15.40
2013,09,26,15,43,15.40
2013,09,26,15,44,15.40
2013,09,26,15,45,15.40
2013,09,26,15,46,15.40
2013,09,26,15,47,15.40
2013,09,26,15,48,15.30
2013,09,26,15,49,15.30
2013,09,26,15,50,15.30
2013,09,26,15,51,15.30
2013,09,26,15,52,15.30
2013,09,26,15,53,15.30
2013,09,26,15,54,15.30
2013,09,26,15,55,15.30
2013,09,26,15,56,15.30
2013,09,26,15,57,15.30
2013,09,26,15,58,15.40
2013,09,26,15,59,15.40
2013,09,26,16,00,15.40
2013,09,26,16,01,15.50
2013,09,26,16,02,15.50
2013,09,26,16,03,15.50
2013,09,26,16,04,15.60
2013,09,26,16,05,15.60
2013,09,26,16,06,15.60
2013,09,26,16,07,15.60
2013,09,26,16,08,15.60
2013,09,26,16,09,15.60
2013,09,26,16,10,15.60
2013,09,26,16,11,15.60
2013,09,26,16,12,15.60
2013,09,26,16,13,15.50
2013,09,26,16,14,15.40
2013,09,26,16,15,15.40
2013,09,26,16,16,15.30
2013,09,26,16,17,15.20
2013,09,26,16,18,15.20
2013,09,26,16,19,15.20
2013,09,26,16,20,15.20
2013,09,26,16,21,15.30
2013,09,26,16,22,15.30
2013,09,26,16,23,15.30
2013,09,26,16,24,15.20
2013,09,26,16,25,15.20
2013,09,26,16,26,15.10
2013,09,26,16,27,15.00
2013,09,26,16,28,15.00
2013,09,26,16,29,14.90
2013,09,26,16,30,14.90
2013,09,26,16,31,14.80
2013,09,26,16,32,14.70
2013,09,26,16,33,14.70
2013,09,26,16,34,14.60
2013,09,26,16,35,14.60
2013,09,26,16,36,14.50
2013,09,26,16,37,14.40
2013,09,26,16,38,14.40
2013,09,26,16,39,14.30
2013,09,26,16,40,14.20
2013,09,26,16,41,14.20
2013,09,26,16,42,14.10
2013,09,26,16,43,14.10
2013,09,26,16,44,14.00
2013,09,26,16,45,14.00
2013,09,26,16,46,14.00
2013,09,26,16,47,14.00
2013,09,26,16,48,13.90
2013,09,26,16,49,13.90
2013,09,26,16,50,13.90
2013,09,26,16,51,13.90
2013,09,26,16,52,13.90
2013,09,26,16,53,13.90
2013,09,26,16,54,13.90
2013,09,26,16,55,13.90
2013,09,26,16,56,13.90
2013,09,26,16,57,13.80
2013,09,26,16,58,13.80
2013,09,26,16,59,13.80
2013,09,26,17,00,13.80
2013,09,26,17,01,13.70
2013,09,26,17,02,13.60
2013,09,26,17,03,13.60
2013,09,26,17,04,13.60
2013,09,26,17,05,13.50
2013,09,26,17,06,13.40
2013,09,26,17,07,13.40
2013,09,26,17,08,13.30
2013,09,26,17,09,13.30
2013,09,26,17,10,13.20
2013,09,26,17,11,13.20
2013,09,26,17,12,13.20
2013,09,26,17,13,13.10
2013,09,26,17,14,13.10
2013,09,26,17,15,13.10
2013,09,26,17,16,13.00
2013,09,26,17,17,13.00
2013,09,26,17,18,12.90
2013,09,26,17,19,12.90
2013,09,26,17,20,12.90
2013,09,26,17,21,12.90
2013,09,26,17,22,12.80
2013,09,26,17,23,12.80
2013,09,26,17,24,12.80
2013,09,26,17,25,12.80
2013,09,26,17,26,12.80
2013,09,26,17,27,12.80
2013,09,26,17,28,12.80
2013,09,26,17,29,12.80
2013,09,26,17,30,12.80
2013,09,26,17,31,12.80
2013,09,26,17,32,12.70
2013,09,26,17,33,12.70
2013,09,26,17,34,12.70
2013,09,26,17,35,12.70
2013,09,26,17,36,12.70
2013,09,26,17,37,12.70
2013,09,26,17,38,12.70
2013,09,26,17,39,12.60
2013,09,26,17,40,12.60
2013,09,26,17,41,12.60
2013,09,26,17,42,12.60
2013,09,26,17,43,12.60
2013,09,26,17,44,12.60